Location: Brusselsch Zeekanaal
(50.8667°N, 4.3667°E)
Time: 01:16:03
(UTC+00:00)

Cosmos 1980 - Pass Details

Date: 08 November 2025
Orbit: 836 x 847 km, 71.0° (Epoch: 13 December)

Event Time Altitude Azimuth Distance (km) Brightness Sun altitude
Rises 04:59:18 0° 198° (SSW) 3,378 6.7 -17.0°
Reaches altitude 10° 05:01:45 10° 195° (SSW) 2,449 6.0 -16.7°
Maximum altitude 05:07:18 66° 114° (ESE) 917 4.1 -15.8°
Drops below altitude 10° 05:12:55 10° 34° (NE) 2,473 6.5 -14.9°
Sets 05:15:24 0° 32° (NNE) 3,414 7.2 -14.5°
